Weather in Gusino

Russia / Smolensk Oblast     54°43′26″N   31°22′03″E
В апреле 2022 года жителям России запретили посещать сайт meteo.paraplan.net по решению Генеральной прокуратуры. Аудитория сайта уменьшилась в 10 раз. Владельцы сайта не видят смысла в поддержке погодного сервера в таких условиях. Сайт будет закрыт в октябре.
temp.,
°C
wind,
m/s
gust,
m/s
humid.,
%
clouds,
%
prec.,
mm/h
press.,
hPa
HPBL,
m
4 october, tue
tue400:00+5wnw2397100 0.1 992237
03:00+5ssw1396100 0.4 994208
06:00+6ssw6996100 2.4 995491
09:00+4sw6896100 5.6 998750
12:00+5ssw5996100 1.9 1000614
15:00+7wsw4793100 2.4 1003550
18:00+6wsw4895100 0.5 1005676
21:00+6w4696100 1.8 1006928
5 october, wed
wed500:00+6wnw499596 0.3 1009555
03:00+6wnw5109399 0.8 1011746
06:00+6wnw41089100 0.1 1012641
09:00+6wnw6989100 0.5 1014983
12:00+8wnw588499 0.1 1017840
15:00+9wnw4778100 0.1 1017965
18:00+9w4994100 0.6 1018494
21:00+8sw3896100 1.6 1018369
6 october, thu
thu600:00+9sw3797100 0.1 1018213
03:00+9wsw379786 0.1 1018180
06:00+9sw3696100 0.0 1018156
09:00+10sw379398 0.0 1018245
12:00+14sw47752 0.0 1017523
15:00+15sw58695 0.0 1017772
18:00+13sw4108357 0.0 1017305
21:00+11wsw5139197 0.0 1018386
7 october, fri
fri700:00+13wnw6128490 0.0 1019761
03:00+10wnw5139222 0.0 1022569
06:00+8w5139539 0.0 1023475
09:00+10wnw61182100 0.0 1025756
12:00+12wnw697396 0.0 1026913
15:00+14wnw576640 0.0 10251105
18:00+11w35820 0.0 102586
21:00+9wsw37907 0.0 1026118
8 october, sat
sat800:00+8sw34935 0.0 102666
03:00+7ssw369417 0.0 1025101
06:00+6ssw399510 0.0 1024178
09:00+8ssw4108748 0.0 1023288
12:00+12ssw6107059 0.0 1021676
15:00+14ssw6116439 0.0 10181010
18:00+12ssw6137296 0.0 1017659
21:00+11ssw61475100 0.0 1017625